Aalto 1
1 42775U 17036L 23313.61626198 .00036893 00000-0 83581-3 0 9990
2 42775 97.1378 339.9990 0006323 308.0662 52.0015 15.42994555354883
URSA MAIOR
1 42776U 17036M 23313.56997248 .00045616 00000-0 91857-3 0 9990
2 42776 97.1382 341.8488 0005566 300.2281 59.8417 15.46434726354987
Max Valier Sat
1 42778U 17036P 23313.64078825 .00045145 00000-0 85727-3 0 9998
2 42778 97.1366 345.7240 0004476 296.7787 63.3006 15.48145833355153
Pegasus
1 42784U 17036V 23313.57975647 .00177454 00000-0 14396-2 0 9997
2 42784 97.1251 350.8573 0002196 245.9663 114.1371 15.70198685355580
SKCUBE
1 42789U 17036AA 23313.60087543 .02132345 52256-2 17970-2 0 9990
2 42789 97.1075 355.3563 0005416 246.8226 113.2491 16.15023400355889
VENTA 1
1 42791U 17036AC 23313.56254203 .00180814 00000-0 14267-2 0 9993
2 42791 97.1231 352.1176 0001916 242.1667 117.9402 15.70859493355646
D-SAT
1 42794U 17036AF 23313.44010144 .00006228 00000-0 47459-3 0 9993
2 42794 97.4767 298.9856 0113620 171.7530 188.5595 14.97336535347654
TechnoSat
1 42829U 17042E 23313.79066021 .00004169 00000-0 38911-3 0 9997
2 42829 97.3803 142.5827 0014421 95.4750 264.8117 14.94615891344231
AO-91
1 43017U 17073E 23313.64720440 .00012196 00000-0 81879-3 0 9997
2 43017 97.6062 192.2799 0223954 308.3663 49.7618 14.88692992322808
AO-92
1 43137U 18004AC 23313.22728580 .00131530 00000-0 13300-2 0 9999
2 43137 97.3126 35.3915 0003553 306.6280 53.4652 15.64877291324829
TianYi 2
1 43155U 18008A 23313.81732386 .00037748 00000-0 11679-2 0 9990
2 43155 97.2788 3.3561 0011791 146.0987 214.1012 15.33320128320906
Zhou Enlai
1 43156U 18008B 23313.80212204 .00043879 00000-0 12913-2 0 9996
2 43156 97.2836 3.7561 0009391 146.5298 213.6541 15.34897154320841
TianYi 6
1 43158U 18008D 23313.60656730 .00030663 00000-0 10755-2 0 9991
2 43158 97.2877 359.6524 0010067 151.5952 208.5839 15.29336416320593
S-Net D
1 43186U 18014G 23313.70551764 .00005526 00000-0 42734-3 0 9994
2 43186 97.6033 214.6701 0013731 46.5483 313.6881 15.01822074315388
S-Net B
1 43187U 18014H 23313.30725469 .00006054 00000-0 46766-3 0 9992
2 43187 97.6051 214.2118 0014346 44.6289 315.6088 15.01819577315322
S-Net A
1 43188U 18014J 23313.30710503 .00006072 00000-0 46895-3 0 9999
2 43188 97.6051 214.3082 0014251 45.1243 315.1136 15.01823201315323
S-Net C
1 43189U 18014K 23313.30984260 .00006196 00000-0 47818-3 0 9996
2 43189 97.6083 214.2105 0015417 39.1277 321.1060 15.01828246313874
CubeBel-1
1 43666U 18083E 23313.82062146 .00093115 00000-0 14513-2 0 9991
2 43666 97.3628 347.4435 0004943 318.8004 41.2876 15.53528686279674
Changshagaoxin
1 43669U 18083H 23313.80081074 .00058004 00000-0 11938-2 0 9999
2 43669 97.3648 340.9722 0004138 339.0981 21.0099 15.45745646279346
Ten-Koh
1 43677U 18084G 23313.40218516 .00004568 00000-0 43246-3 0 9992
2 43677 98.0334 96.2389 0015227 32.2811 327.9337 14.94069994273738
PO-101
1 43678U 18084H 23313.75459110 .00003015 00000-0 28758-3 0 9995
2 43678 98.0429 100.9119 0010220 46.3861 313.8204 14.94087953273997
QO-100
1 43700U 18090A 23313.69497326 .00000161 00000-0 00000+0 0 9997
2 43700 0.0115 266.2584 0001537 357.3925 60.9338 1.00272410 18382
MinXSS-2
1 43758U 18099A 23313.69076519 .00009780 00000-0 70820-3 0 9993
2 43758 97.5882 14.9364 0018297 355.9547 4.1528 15.04050917269593
AO-95
1 43770U 18099N 23313.11224921 .00009463 00000-0 72592-3 0 9992
2 43770 97.5809 10.9464 0014995 31.6109 328.6013 15.01923266269345
RANGE-B
1 43772U 18099Q 23313.12640432 .00013373 00000-0 96458-3 0 9996
2 43772 97.5573 14.0254 0005220 312.3792 47.6992 15.04241343269431
RANGE-A
1 43773U 18099R 23313.11508604 .00006947 00000-0 56424-3 0 9998
2 43773 97.5498 8.3509 0013012 5.0371 355.0981 14.99853032269277
MOVE-II
1 43780U 18099Y 23313.67362395 .00017142 00000-0 11281-2 0 9992
2 43780 97.5542 14.8276 0008233 24.4565 335.7052 15.07589602269629
SNUSat 2
1 43782U 18099AA 23313.69952438 .00007662 00000-0 59533-3 0 9998
2 43782 97.5530 11.7854 0015510 327.6019 32.4252 15.01493903269450
SnugLite
1 43784U 18099AC 23313.12304869 .00009757 00000-0 74468-3 0 9998
2 43784 97.5272 10.7805 0005601 347.1683 12.9398 15.02181559269416
ITASat 1
1 43786U 18099AE 23313.09733788 .00007312 00000-0 57315-3 0 9999
2 43786 97.5517 11.7167 0019617 15.3557 344.8259 15.01115522269372
EAGLET 1
1 43790U 18099AJ 23313.12626073 .00006471 00000-0 51799-3 0 9991
2 43790 97.5638 12.1199 0016188 7.6602 352.4866 15.00405165269100
ESEO
1 43792U 18099AL 23313.11434689 .00003978 00000-0 33814-3 0 9999
2 43792 97.5525 10.1018 0012382 7.1502 352.9895 14.98353931269084
CSIM
1 43793U 18099AM 23313.66696605 .00016733 00000-0 10926-2 0 9999
2 43793 97.5612 16.3273 0014355 355.1710 4.9377 15.07827363269470
JO-97
1 43803U 18099AX 23313.69874540 .00009273 00000-0 69187-3 0 9995
2 43803 97.5561 12.6384 0009977 344.6943 15.3979 15.03031281269535
Suomi 100
1 43804U 18099AY 23313.73166912 .00008684 00000-0 65484-3 0 9999
2 43804 97.5589 12.4603 0017326 335.0420 24.9966 15.02569991269534
CHOMPTT
1 43855U 18104G 23313.34309462 .00069752 00000-0 11764-2 0 9992
2 43855 85.0246 66.6804 0008962 129.6801 230.5248 15.51359951272980
ISAT
1 43879U 18111D 23313.71215633 .00020509 00000-0 14417-2 0 9998
2 43879 97.6306 216.2498 0015770 38.5964 321.6386 15.05023393264182
UWE-4
1 43880U 18111E 23313.66929916 .00010343 00000-0 73749-3 0 9999
2 43880 97.6232 216.6891 0019793 44.2766 316.0039 15.04592899264225
Sparrow
1 43881U 18111F 23313.54970079 .00012267 00000-0 85676-3 0 9992
2 43881 97.6382 217.6242 0012906 74.6469 285.6183 15.05416567266231
Lume 1
1 43908U 18111AJ 23313.18036851 .00118754 00000-0 12573-2 0 9996
2 43908 97.1088 195.4529 0010930 43.6090 316.6032 15.63685365271895
AISTechSat 3
1 44103U 19018AB 23313.78430642 .00065713 00000-0 10357-2 0 9997
2 44103 97.2311 12.0965 0007363 102.1138 258.0941 15.53309659257004
AISat 1
1 44104U 19018AC 23313.47081882 .00049679 00000-0 69719-3 0 9992
2 44104 97.3721 48.2501 0032953 85.8933 274.6087 15.55933251258235
Prox-1
1 44339U 19036A 23313.08741112 .00010268 00000-0 19674-2 0 9994
2 44339 23.9996 201.8119 0009373 64.4399 295.7063 14.61872163232808
Move-IIb
1 44398U 19038N 23312.24888979 .00418929 00000-0 25711-2 0 9996
2 44398 97.6653 304.6333 0013769 115.8044 244.4642 15.75994094241014
SONATE
1 44400U 19038Q 23313.49837195 .00018211 00000-0 72251-3 0 9994
2 44400 97.6997 294.6372 0019767 157.2626 202.9491 15.25242076240358
BeeSat 9
1 44412U 19038AC 23313.52376951 .00054821 00000-0 13459-2 0 9990
2 44412 97.6831 299.9958 0014931 133.7618 226.4866 15.40385323240441
JAISAT-1
1 44419U 19038F 23313.51584466 .00055869 00000-0 13670-2 0 9996
2 44419 97.6832 301.1095 0014584 130.9193 229.3318 15.40488884240820
Taurus 1
1 44530U 19059C 23313.80261532 .00007335 00000-0 18313-2 0 9995
2 44530 98.5632 64.0679 0012035 10.2718 349.8720 14.51813554219757
Duchifat 3
1 44854U 19089C 23313.64690098 .00013998 00000-0 86017-3 0 9991
2 44854 36.9606 300.1088 0005537 85.5709 274.5668 15.09456436214795
